Time,TemperatureF,DewpointF,PressureIn,WindDirection,WindDirectionDegrees,WindSpeedMPH,WindSpeedGustMPH,Humidity,HourlyPrecipIn,Conditions,Clouds,dailyrainin,SoftwareType,DateUTC
2013-04-23 00:00:00,43.4,36.3,30.50,NE,40,7.0,7.0,76,0.00,,,0.00,Wunderground v.1.15,2013-04-23 04:00:00,
2013-04-23 00:05:00,43.4,36.7,30.50,NE,42,7.0,7.0,77,0.00,,,0.00,Wunderground v.1.15,2013-04-23 04:05:00,
2013-04-23 00:10:00,43.4,36.7,30.50,NE,48,6.0,7.0,77,0.00,,,0.00,Wunderground v.1.15,2013-04-23 04:10:00,
2013-04-23 00:15:00,43.3,36.6,30.50,NE,36,7.0,7.0,77,0.00,,,0.00,Wunderground v.1.15,2013-04-23 04:15:00,
2013-04-23 00:20:00,43.3,36.6,30.50,NE,42,6.0,6.0,77,0.00,,,0.00,Wunderground v.1.15,2013-04-23 04:20:00,
2013-04-23 00:25:00,43.2,36.5,30.49,NE,36,4.0,7.0,77,0.00,,,0.00,Wunderground v.1.15,2013-04-23 04:25:00,
2013-04-23 00:30:00,43.1,36.0,30.49,ENE,58,6.0,7.0,76,0.00,,,0.00,Wunderground v.1.15,2013-04-23 04:30:00,
2013-04-23 00:35:00,43.1,36.0,30.49,NE,34,7.0,11.0,76,0.00,,,0.00,Wunderground v.1.15,2013-04-23 04:35:00,
2013-04-23 00:40:00,43.1,35.7,30.49,NE,48,6.0,7.0,75,0.00,,,0.00,Wunderground v.1.15,2013-04-23 04:40:00,
2013-04-23 00:50:00,43.0,35.6,30.49,NNE,25,7.0,7.0,75,0.00,,,0.00,Wunderground v.1.15,2013-04-23 04:50:00,
2013-04-23 01:00:00,42.9,35.5,30.48,NE,40,6.0,9.0,75,0.00,,,0.00,Wunderground v.1.15,2013-04-23 05:00:00,
2013-04-23 01:10:00,42.8,35.4,30.48,NNE,30,4.0,4.0,75,0.00,,,0.00,Wunderground v.1.15,2013-04-23 05:10:00,
2013-04-23 01:20:00,42.8,35.4,30.48,NNE,28,5.0,5.0,75,0.00,,,0.00,Wunderground v.1.15,2013-04-23 05:20:00,
2013-04-23 01:30:00,42.7,35.0,30.48,NE,45,5.0,12.0,74,0.00,,,-99.99,WeatherLink 6.0.2,2013-04-23 05:30:00,
2013-04-23 01:40:00,42.7,34.6,30.47,NNE,30,5.0,5.0,73,0.00,,,0.00,Wunderground v.1.15,2013-04-23 05:40:00,
2013-04-23 01:50:00,42.6,34.5,30.47,NE,50,4.0,4.0,73,0.00,,,0.00,Wunderground v.1.15,2013-04-23 05:50:00,
2013-04-23 02:00:00,42.5,34.5,30.47,NNE,22,4.0,8.0,73,0.00,,,0.00,Wunderground v.1.15,2013-04-23 06:00:00,
2013-04-23 02:10:00,42.2,33.5,30.46,NE,36,6.0,7.0,71,0.00,,,0.00,Wunderground v.1.15,2013-04-23 06:10:00,
2013-04-23 02:20:00,41.9,33.2,30.45,North,10,6.0,7.0,71,0.00,,,0.00,Wunderground v.1.15,2013-04-23 06:20:00,
2013-04-23 02:30:00,41.6,32.2,30.45,NNE,24,6.0,6.0,69,0.00,,,0.00,Wunderground v.1.15,2013-04-23 06:30:00,
2013-04-23 02:40:00,41.5,31.7,30.45,NNE,20,7.0,7.0,68,0.00,,,0.00,Wunderground v.1.15,2013-04-23 06:40:00,
2013-04-23 02:50:00,41.2,31.8,30.44,NNE,12,6.0,6.0,69,0.00,,,0.00,Wunderground v.1.15,2013-04-23 06:50:00,
2013-04-23 03:00:00,41.0,32.0,30.44,NNE,28,5.0,7.0,70,0.00,,,0.00,Wunderground v.1.15,2013-04-23 07:00:00,
2013-04-23 03:10:00,40.8,31.8,30.44,NNW,330,5.0,6.0,70,0.00,,,0.00,Wunderground v.1.15,2013-04-23 07:10:00,
2013-04-23 03:20:00,40.5,31.8,30.43,NE,35,5.0,5.0,71,0.00,,,0.00,Wunderground v.1.15,2013-04-23 07:20:00,
2013-04-23 03:30:00,40.3,32.3,30.43,North,356,3.0,3.0,73,0.00,,,0.00,Wunderground v.1.15,2013-04-23 07:30:00,
2013-04-23 03:40:00,40.0,32.0,30.43,North,1,5.0,5.0,73,0.00,,,0.00,Wunderground v.1.15,2013-04-23 07:40:00,
2013-04-23 03:50:00,39.8,31.8,30.42,NNE,23,4.0,7.0,73,0.00,,,0.00,Wunderground v.1.15,2013-04-23 07:50:00,
2013-04-23 04:00:00,39.5,31.6,30.42,NNE,22,4.0,9.0,73,0.00,,,-99.99,WeatherLink 6.0.2,2013-04-23 08:00:00,
2013-04-23 04:10:00,39.4,31.1,30.43,NE,45,5.0,6.0,72,0.00,,,0.00,Wunderground v.1.15,2013-04-23 08:10:00,
2013-04-23 04:20:00,39.4,31.1,30.42,NNE,20,5.0,5.0,72,0.00,,,0.00,Wunderground v.1.15,2013-04-23 08:20:00,
2013-04-23 04:30:00,39.3,31.0,30.42,NNE,15,4.0,4.0,72,0.00,,,0.00,Wunderground v.1.15,2013-04-23 08:30:00,
2013-04-23 04:40:00,39.2,31.3,30.42,North,351,5.0,5.0,73,0.00,,,0.00,Wunderground v.1.15,2013-04-23 08:40:00,
2013-04-23 04:50:00,39.2,31.3,30.41,North,11,3.0,3.0,73,0.00,,,0.00,Wunderground v.1.15,2013-04-23 08:50:00,
2013-04-23 05:00:00,39.1,31.2,30.41,NNE,26,4.0,4.0,73,0.00,,,0.00,Wunderground v.1.15,2013-04-23 09:00:00,
2013-04-23 05:10:00,38.9,31.3,30.41,NNE,23,3.0,3.0,74,0.00,,,0.00,Wunderground v.1.15,2013-04-23 09:10:00,
2013-04-23 05:20:00,38.9,31.3,30.41,North,5,4.0,4.0,74,0.00,,,0.00,Wunderground v.1.15,2013-04-23 09:20:00,
2013-04-23 05:30:00,39.1,31.2,30.41,NNW,347,3.0,3.0,73,0.00,,,0.00,Wunderground v.1.15,2013-04-23 09:30:00,
2013-04-23 05:40:00,39.3,31.4,30.41,NNE,22,4.0,4.0,73,0.00,,,0.00,Wunderground v.1.15,2013-04-23 09:40:00,
2013-04-23 05:50:00,39.3,31.7,30.41,NNE,13,3.0,3.0,74,0.00,,,0.00,Wunderground v.1.15,2013-04-23 09:50:00,
2013-04-23 06:00:00,39.5,31.6,30.41,North,0,3.0,10.0,73,0.00,,,-99.99,WeatherLink 6.0.2,2013-04-23 10:00:00,
2013-04-23 06:10:00,39.6,31.7,30.40,NNE,22,4.0,4.0,73,0.00,,,0.00,Wunderground v.1.15,2013-04-23 10:10:00,
2013-04-23 06:20:00,39.7,31.8,30.40,NNE,16,5.0,5.0,73,0.00,,,0.00,Wunderground v.1.15,2013-04-23 10:20:00,
2013-04-23 06:30:00,39.7,31.8,30.40,NE,43,4.0,6.0,73,0.00,,,0.00,Wunderground v.1.15,2013-04-23 10:30:00,
2013-04-23 06:40:00,39.8,31.8,30.40,North,356,4.0,5.0,73,0.00,,,0.00,Wunderground v.1.15,2013-04-23 10:40:00,
2013-04-23 06:50:00,39.9,31.6,30.40,NE,36,5.0,6.0,72,0.00,,,0.00,Wunderground v.1.15,2013-04-23 10:50:00,
2013-04-23 07:00:00,40.0,32.0,30.40,NNE,20,5.0,5.0,73,0.00,,,0.00,Wunderground v.1.15,2013-04-23 11:00:00,
2013-04-23 07:10:00,40.1,32.1,30.40,NNE,18,3.0,3.0,73,0.00,,,0.00,Wunderground v.1.15,2013-04-23 11:10:00,
2013-04-23 07:20:00,40.1,32.1,30.40,North,1,3.0,6.0,73,0.00,,,0.00,Wunderground v.1.15,2013-04-23 11:20:00,
2013-04-23 07:30:00,40.3,32.7,30.40,NNE,18,4.0,4.0,74,0.00,,,0.00,Wunderground v.1.15,2013-04-23 11:30:00,
2013-04-23 07:40:00,40.4,32.4,30.40,North,351,3.0,3.0,73,0.00,,,0.00,Wunderground v.1.15,2013-04-23 11:40:00,
2013-04-23 07:50:00,40.5,32.9,30.40,North,356,4.0,8.0,74,0.00,,,0.00,Wunderground v.1.15,2013-04-23 11:50:00,
2013-04-23 08:00:00,40.3,32.7,30.39,North,351,4.0,4.0,74,0.00,,,0.00,Wunderground v.1.15,2013-04-23 12:00:00,
2013-04-23 08:10:00,40.4,33.1,30.39,NNE,17,4.0,5.0,75,0.00,,,0.00,Wunderground v.1.15,2013-04-23 12:10:00,
2013-04-23 08:20:00,40.4,33.1,30.39,NNW,345,4.0,6.0,75,0.00,,,0.00,Wunderground v.1.15,2013-04-23 12:20:00,
2013-04-23 08:30:00,40.8,33.5,30.39,North,0,5.0,11.0,75,0.00,,,-99.99,WeatherLink 6.0.2,2013-04-23 12:30:00,
2013-04-23 08:40:00,41.4,33.7,30.38,North,1,5.0,8.0,74,0.00,,,0.00,Wunderground v.1.15,2013-04-23 12:40:00,
2013-04-23 08:50:00,41.6,34.3,30.38,NE,41,5.0,5.0,75,0.00,,,0.00,Wunderground v.1.15,2013-04-23 12:50:00,
2013-04-23 09:00:00,41.9,34.6,30.38,North,1,5.0,8.0,75,0.00,,,0.00,Wunderground v.1.15,2013-04-23 13:00:00,
2013-04-23 09:10:00,42.2,34.8,30.38,North,356,4.0,4.0,75,0.00,,,0.00,Wunderground v.1.15,2013-04-23 13:10:00,
2013-04-23 09:20:00,42.1,34.7,30.37,North,1,4.0,5.0,75,0.00,,,0.00,Wunderground v.1.15,2013-04-23 13:20:00,
2013-04-23 09:30:00,41.9,34.9,30.37,North,0,4.0,11.0,76,0.00,,,-99.99,WeatherLink 6.0.2,2013-04-23 13:30:00,
2013-04-23 09:40:00,42.2,35.2,30.37,North,5,4.0,9.0,76,0.00,,,0.00,Wunderground v.1.15,2013-04-23 13:40:00,
2013-04-23 09:50:00,42.2,35.2,30.37,NNE,14,4.0,4.0,76,0.00,,,0.00,Wunderground v.1.15,2013-04-23 13:50:00,
2013-04-23 10:00:00,42.5,35.8,30.37,NNE,22,5.0,5.0,77,0.00,,,0.00,Wunderground v.1.15,2013-04-23 14:00:00,
2013-04-23 10:10:00,42.0,35.6,30.37,North,351,5.0,5.0,78,0.00,,,0.00,Wunderground v.1.15,2013-04-23 14:10:00,
2013-04-23 10:20:00,41.8,36.4,30.37,North,6,5.0,5.0,81,0.00,,,0.00,Wunderground v.1.15,2013-04-23 14:20:00,
2013-04-23 10:30:00,42.0,36.9,30.37,North,356,6.0,6.0,82,0.00,,,0.00,Wunderground v.1.15,2013-04-23 14:30:00,
2013-04-23 10:40:00,41.8,37.3,30.36,NNE,18,6.0,7.0,84,0.00,,,0.00,Wunderground v.1.15,2013-04-23 14:40:00,
2013-04-23 10:50:00,41.5,37.6,30.36,NNE,28,6.0,6.0,86,0.00,,,0.00,Wunderground v.1.15,2013-04-23 14:50:00,
2013-04-23 11:00:00,41.4,38.1,30.36,NNE,22,5.0,13.0,88,0.00,,,-99.99,WeatherLink 6.0.2,2013-04-23 15:00:00,
2013-04-23 11:10:00,41.6,38.6,30.35,North,356,5.0,7.0,89,0.00,,,0.00,Wunderground v.1.15,2013-04-23 15:10:00,
2013-04-23 11:20:00,41.4,37.8,30.35,North,356,5.0,5.0,87,0.00,,,0.00,Wunderground v.1.15,2013-04-23 15:20:00,
2013-04-23 11:30:00,41.6,38.0,30.34,NNE,12,5.0,5.0,87,0.00,,,0.00,Wunderground v.1.15,2013-04-23 15:30:00,
2013-04-23 11:40:00,42.2,38.0,30.34,NNE,14,4.0,4.0,85,0.00,,,0.00,Wunderground v.1.15,2013-04-23 15:40:00,
2013-04-23 11:50:00,42.8,38.3,30.34,NNE,16,4.0,6.0,84,0.00,,,0.00,Wunderground v.1.15,2013-04-23 15:50:00,
2013-04-23 12:00:00,42.7,38.2,30.33,North,0,5.0,12.0,84,0.00,,,-99.99,WeatherLink 6.0.2,2013-04-23 16:00:00,
2013-04-23 12:10:00,43.3,38.5,30.33,North,7,5.0,5.0,83,0.00,,,0.00,Wunderground v.1.15,2013-04-23 16:10:00,
2013-04-23 12:20:00,43.8,38.7,30.33,NNE,30,5.0,5.0,82,0.00,,,0.00,Wunderground v.1.15,2013-04-23 16:20:00,
2013-04-23 12:30:00,44.1,38.6,30.32,NNE,22,5.0,13.0,81,0.00,,,-99.99,WeatherLink 6.0.2,2013-04-23 16:30:00,
2013-04-23 12:40:00,44.2,38.7,30.32,NE,42,4.0,8.0,81,0.00,,,0.00,Wunderground v.1.15,2013-04-23 16:40:00,
2013-04-23 12:50:00,44.6,39.1,30.31,NNE,20,5.0,8.0,81,0.00,,,0.00,Wunderground v.1.15,2013-04-23 16:50:00,
2013-04-23 13:00:00,44.6,38.8,30.30,NNE,22,7.0,7.0,80,0.00,,,0.00,Wunderground v.1.15,2013-04-23 17:00:00,
2013-04-23 13:10:00,45.0,38.9,30.29,NNE,26,5.0,5.0,79,0.00,,,0.00,Wunderground v.1.15,2013-04-23 17:10:00,
2013-04-23 13:20:00,45.2,39.1,30.29,NNE,21,5.0,5.0,79,0.00,,,0.00,Wunderground v.1.15,2013-04-23 17:20:00,
2013-04-23 13:30:00,45.5,39.4,30.28,North,356,5.0,8.0,79,0.00,,,0.00,Wunderground v.1.15,2013-04-23 17:30:00,
2013-04-23 13:40:00,46.0,39.5,30.27,North,351,6.0,8.0,78,0.00,,,0.00,Wunderground v.1.15,2013-04-23 17:40:00,
2013-04-23 13:50:00,46.6,39.8,30.27,NNE,32,6.0,6.0,77,0.00,,,0.00,Wunderground v.1.15,2013-04-23 17:50:00,
2013-04-23 14:00:00,47.0,39.8,30.27,North,5,4.0,4.0,76,0.00,,,0.00,Wunderground v.1.15,2013-04-23 18:00:00,
2013-04-23 14:10:00,47.3,39.8,30.26,NNE,19,5.0,5.0,75,0.00,,,0.00,Wunderground v.1.15,2013-04-23 18:10:00,
2013-04-23 14:20:00,47.2,39.7,30.26,North,356,5.0,5.0,75,0.00,,,0.00,Wunderground v.1.15,2013-04-23 18:20:00,
2013-04-23 14:30:00,47.1,39.6,30.26,North,9,5.0,6.0,75,0.00,,,0.00,Wunderground v.1.15,2013-04-23 18:30:00,
2013-04-23 14:40:00,47.3,39.4,30.26,North,351,5.0,5.0,74,0.00,,,0.00,Wunderground v.1.15,2013-04-23 18:40:00,
2013-04-23 14:50:00,47.4,39.5,30.25,North,8,5.0,5.0,74,0.00,,,0.00,Wunderground v.1.15,2013-04-23 18:50:00,
2013-04-23 15:00:00,47.8,39.6,30.24,North,1,5.0,5.0,73,0.00,,,0.00,Wunderground v.1.15,2013-04-23 19:00:00,
2013-04-23 15:10:00,47.9,39.7,30.24,North,1,5.0,5.0,73,0.00,,,0.00,Wunderground v.1.15,2013-04-23 19:10:00,
2013-04-23 15:20:00,48.2,39.9,30.24,WNW,301,4.0,4.0,73,0.00,,,0.00,Wunderground v.1.15,2013-04-23 19:20:00,
2013-04-23 15:30:00,48.2,39.9,30.23,NNW,332,5.0,5.0,73,0.00,,,0.00,Wunderground v.1.15,2013-04-23 19:30:00,
2013-04-23 15:40:00,48.5,39.9,30.24,NNE,31,4.0,11.0,72,0.00,,,0.00,Wunderground v.1.15,2013-04-23 19:40:00,
2013-04-23 15:50:00,48.8,40.2,30.23,North,5,5.0,5.0,72,0.00,,,0.00,Wunderground v.1.15,2013-04-23 19:50:00,
2013-04-23 16:00:00,49.2,40.2,30.23,North,351,5.0,5.0,71,0.00,,,0.00,Wunderground v.1.15,2013-04-23 20:00:00,
2013-04-23 16:10:00,49.4,40.0,30.23,NNE,26,4.0,4.0,70,0.00,,,0.00,Wunderground v.1.15,2013-04-23 20:10:00,
2013-04-23 16:20:00,49.8,40.4,30.22,NNE,15,5.0,5.0,70,0.00,,,0.00,Wunderground v.1.15,2013-04-23 20:20:00,
2013-04-23 16:30:00,50.0,40.6,30.23,North,7,4.0,8.0,70,0.00,,,0.00,Wunderground v.1.15,2013-04-23 20:30:00,
2013-04-23 16:40:00,50.1,40.7,30.22,NW,323,5.0,6.0,70,0.00,,,0.00,Wunderground v.1.15,2013-04-23 20:40:00,
2013-04-23 16:50:00,50.4,41.0,30.22,North,9,5.0,5.0,70,0.00,,,0.00,Wunderground v.1.15,2013-04-23 20:50:00,
2013-04-23 17:00:00,50.9,41.1,30.22,NNE,28,5.0,5.0,69,0.00,,,0.00,Wunderground v.1.15,2013-04-23 21:00:00,
2013-04-23 17:10:00,50.8,41.0,30.22,NNE,19,5.0,5.0,69,0.00,,,0.00,Wunderground v.1.15,2013-04-23 21:10:00,
2013-04-23 17:20:00,51.4,41.2,30.22,NNW,346,4.0,4.0,68,0.00,,,0.00,Wunderground v.1.15,2013-04-23 21:20:00,
2013-04-23 17:30:00,51.5,41.3,30.21,NE,39,5.0,5.0,68,0.00,,,0.00,Wunderground v.1.15,2013-04-23 21:30:00,
2013-04-23 17:40:00,52.2,41.6,30.20,NNE,21,6.0,7.0,67,0.00,,,0.00,Wunderground v.1.15,2013-04-23 21:40:00,
2013-04-23 17:50:00,52.7,41.7,30.19,NE,40,7.0,7.0,66,0.00,,,0.00,Wunderground v.1.15,2013-04-23 21:50:00,
2013-04-23 18:00:00,52.6,41.6,30.20,NNE,22,7.0,14.0,66,0.00,,,-99.99,WeatherLink 6.0.2,2013-04-23 22:00:00,
2013-04-23 18:10:00,52.4,41.4,30.19,NE,55,5.0,5.0,66,0.00,,,0.00,Wunderground v.1.15,2013-04-23 22:10:00,
2013-04-23 18:20:00,52.8,41.7,30.18,NE,38,8.0,8.0,66,0.00,,,0.00,Wunderground v.1.15,2013-04-23 22:20:00,
2013-04-23 18:30:00,52.9,41.8,30.18,NE,34,6.0,8.0,66,0.00,,,0.00,Wunderground v.1.15,2013-04-23 22:30:00,
2013-04-23 18:40:00,52.7,41.3,30.17,North,1,7.0,8.0,65,0.00,,,0.00,Wunderground v.1.15,2013-04-23 22:40:00,
2013-04-23 18:50:00,51.8,41.2,30.17,NNE,27,8.0,8.0,67,0.00,,,0.00,Wunderground v.1.15,2013-04-23 22:50:00,
2013-04-23 19:00:00,51.2,41.0,30.17,North,351,7.0,7.0,68,0.00,,,0.00,Wunderground v.1.15,2013-04-23 23:00:00,
2013-04-23 19:10:00,51.1,41.3,30.18,NNW,336,6.0,6.0,69,0.00,,,0.00,Wunderground v.1.15,2013-04-23 23:10:00,
2013-04-23 19:20:00,51.0,41.2,30.18,NE,37,6.0,6.0,69,0.00,,,0.00,Wunderground v.1.15,2013-04-23 23:20:00,
2013-04-23 19:30:00,51.0,41.2,30.18,NNE,29,5.0,6.0,69,0.00,,,0.00,Wunderground v.1.15,2013-04-23 23:30:00,
2013-04-23 19:40:00,50.8,41.0,30.17,NNE,15,5.0,5.0,69,0.00,,,0.00,Wunderground v.1.15,2013-04-23 23:40:00,
2013-04-23 19:50:00,50.6,40.8,30.17,North,356,4.0,6.0,69,0.00,,,0.00,Wunderground v.1.15,2013-04-23 23:50:00,
2013-04-23 20:00:00,50.3,40.9,30.17,North,0,5.0,13.0,70,0.00,,,-99.99,WeatherLink 6.0.2,2013-04-24 00:00:00,
2013-04-23 20:10:00,50.1,41.1,30.16,NNE,20,4.0,4.0,71,0.00,,,0.00,Wunderground v.1.15,2013-04-24 00:10:00,
2013-04-23 20:20:00,49.7,40.7,30.15,NNE,30,4.0,4.0,71,0.00,,,0.00,Wunderground v.1.15,2013-04-24 00:20:00,
2013-04-23 20:30:00,49.4,40.7,30.14,NNE,28,5.0,5.0,72,0.00,,,0.00,Wunderground v.1.15,2013-04-24 00:30:00,
2013-04-23 20:40:00,49.1,40.8,30.14,NNE,12,3.0,3.0,73,0.00,,,0.00,Wunderground v.1.15,2013-04-24 00:40:00,
2013-04-23 20:50:00,48.8,40.5,30.13,NNE,13,4.0,4.0,73,0.00,,,0.00,Wunderground v.1.15,2013-04-24 00:50:00,
2013-04-23 21:00:00,48.6,40.3,30.14,NNE,22,4.0,8.0,73,0.00,,,-99.99,WeatherLink 6.0.2,2013-04-24 01:00:00,
2013-04-23 21:10:00,48.4,40.5,30.14,North,1,3.0,3.0,74,0.00,,,0.00,Wunderground v.1.15,2013-04-24 01:10:00,
2013-04-23 21:20:00,48.1,40.2,30.13,North,9,4.0,9.0,74,0.00,,,0.00,Wunderground v.1.15,2013-04-24 01:20:00,
2013-04-23 21:30:00,47.9,40.0,30.13,NE,51,6.0,7.0,74,0.00,,,0.00,Wunderground v.1.15,2013-04-24 01:30:00,
2013-04-23 21:40:00,47.7,39.8,30.14,North,356,5.0,5.0,74,0.00,,,0.00,Wunderground v.1.15,2013-04-24 01:40:00,
2013-04-23 21:50:00,47.4,39.9,30.13,NNE,17,5.0,8.0,75,0.00,,,0.00,Wunderground v.1.15,2013-04-24 01:50:00,
2013-04-23 22:00:00,47.2,39.7,30.13,North,1,4.0,4.0,75,0.00,,,0.00,Wunderground v.1.15,2013-04-24 02:00:00,
2013-04-23 22:10:00,47.1,39.6,30.14,North,1,4.0,5.0,75,0.00,,,0.00,Wunderground v.1.15,2013-04-24 02:10:00,
2013-04-23 22:20:00,47.0,39.8,30.13,West,276,2.0,2.0,76,0.00,,,0.00,Wunderground v.1.15,2013-04-24 02:20:00,
2013-04-23 22:30:00,46.7,39.5,30.12,North,0,2.0,8.0,76,0.00,,,-99.99,WeatherLink 6.0.2,2013-04-24 02:30:00,
2013-04-23 22:40:00,46.5,39.3,30.12,WNW,301,2.0,2.0,76,0.00,,,0.00,Wunderground v.1.15,2013-04-24 02:40:00,
2013-04-23 22:50:00,46.3,39.5,30.13,NE,48,2.0,2.0,77,0.00,,,0.00,Wunderground v.1.15,2013-04-24 02:50:00,
2013-04-23 23:01:00,46.1,39.3,30.12,North,0,2.0,7.0,77,0.00,,,-99.99,WeatherLink 6.0.2,2013-04-24 03:01:00,
2013-04-23 23:10:00,45.9,39.4,30.11,NNW,347,1.0,2.0,78,0.00,,,0.00,Wunderground v.1.15,2013-04-24 03:10:00,
2013-04-23 23:20:00,45.5,39.4,30.11,WNW,288,1.0,4.0,79,0.00,,,0.00,Wunderground v.1.15,2013-04-24 03:20:00,
2013-04-23 23:30:00,45.6,39.5,30.11,NW,318,4.0,11.0,79,0.00,,,0.00,Wunderground v.1.15,2013-04-24 03:30:00,
2013-04-23 23:45:00,45.4,39.3,30.11,West,273,1.0,1.0,79,0.00,,,0.00,Wunderground v.1.15,2013-04-24 03:45:00,
2013-04-23 23:55:00,45.2,39.1,30.12,NW,306,1.0,2.0,79,0.00,,,0.00,Wunderground v.1.15,2013-04-24 03:55:00,